ACA855 EGLL-CYYZ

Flight info

Callsign ACA855
Flight time N/A
Altitude 32000
Route CPT L9 BUCGO DCT FELCA DCT NICXI DCT BAKUR DCT ABAGU DCT TIPUR DCT SHA DCT UNBEG DCT DOGAL/M079F340 NATA ALLRY/N0453F360 DCT QUBIS DCT LETAK IMEBA9
Aircraft A21N/M-SDE2E3FGHIRWXY/LB1

Departure

Time 2026-05-01 14:34
Airport London Heathrow Airport (EGLL)

Arrival

Time N/A
Airport Toronto Pearson International Airport (CYYZ)
Time Latitude Longitude Altitude Speed Heading
2026-05-01 14:08 51.47396 -0.47514 84 ft 0 kts 270°
2026-05-01 14:09 51.47316 -0.47514 83 ft 0 kts 270°
2026-05-01 14:19 51.47316 -0.47505 83 ft 2 kts 270°
2026-05-01 14:19 51.47316 -0.47481 83 ft 2 kts 270°
2026-05-01 14:20 51.47316 -0.47457 84 ft 2 kts 270°
2026-05-01 14:20 51.47317 -0.47409 85 ft 2 kts 270°
2026-05-01 14:20 51.47317 -0.47393 85 ft 0 kts 270°
2026-05-01 14:21 51.47320 -0.47371 85 ft 2 kts 231°
2026-05-01 14:21 51.47332 -0.47357 86 ft 2 kts 192°
2026-05-01 14:21 51.47339 -0.47356 86 ft 1 kts 176°
2026-05-01 14:22 51.47343 -0.47357 86 ft 0 kts 180°
2026-05-01 14:23 51.47335 -0.47357 86 ft 2 kts 180°
2026-05-01 14:23 51.47317 -0.47357 85 ft 2 kts 180°
2026-05-01 14:23 51.47295 -0.47357 86 ft 3 kts 179°
2026-05-01 14:24 51.47271 -0.47356 85 ft 3 kts 179°
2026-05-01 14:24 51.47243 -0.47355 86 ft 4 kts 179°
2026-05-01 14:24 51.47213 -0.47354 86 ft 4 kts 179°
2026-05-01 14:24 51.47180 -0.47353 86 ft 4 kts 179°
2026-05-01 14:25 51.47143 -0.47352 85 ft 6 kts 179°
2026-05-01 14:25 51.47093 -0.47350 84 ft 8 kts 179°
2026-05-01 14:25 51.47031 -0.47348 83 ft 9 kts 179°
2026-05-01 14:25 51.46959 -0.47347 83 ft 10 kts 179°
2026-05-01 14:26 51.46885 -0.47345 83 ft 10 kts 179°
2026-05-01 14:26 51.46733 -0.47342 81 ft 12 kts 178°
2026-05-01 14:26 51.46664 -0.47264 80 ft 13 kts 110°
2026-05-01 14:27 51.46657 -0.47115 80 ft 13 kts 90°
2026-05-01 14:27 51.46657 -0.46967 80 ft 13 kts 90°
2026-05-01 14:27 51.46659 -0.46820 80 ft 13 kts 89°
2026-05-01 14:28 51.46659 -0.46515 83 ft 14 kts 90°
2026-05-01 14:28 51.46659 -0.46347 83 ft 18 kts 91°
2026-05-01 14:28 51.46661 -0.46071 86 ft 26 kts 90°
2026-05-01 14:28 51.46659 -0.45783 86 ft 25 kts 90°
2026-05-01 14:29 51.46661 -0.45517 89 ft 22 kts 90°
2026-05-01 14:29 51.46661 -0.45285 93 ft 19 kts 89°
2026-05-01 14:30 51.46665 -0.44698 92 ft 17 kts 90°
2026-05-01 14:30 51.46665 -0.44493 89 ft 19 kts 90°
2026-05-01 14:30 51.46665 -0.44285 89 ft 16 kts 89°
2026-05-01 14:31 51.46666 -0.44216 89 ft 0 kts 90°
2026-05-01 14:31 51.46666 -0.44206 89 ft 3 kts 90°
2026-05-01 14:31 51.46653 -0.44104 88 ft 13 kts 127°
2026-05-01 14:32 51.46567 -0.44050 87 ft 13 kts 177°
2026-05-01 14:32 51.46493 -0.44112 86 ft 13 kts 259°
2026-05-01 14:32 51.46492 -0.44132 86 ft 0 kts 265°
2026-05-01 14:33 51.46489 -0.44305 86 ft 48 kts 271°
2026-05-01 14:33 51.46483 -0.45219 89 ft 114 kts 270°
2026-05-01 14:34 51.46481 -0.46798 81 ft 169 kts 270°
2026-05-01 14:34 51.46470 -0.48922 259 ft 199 kts 268°
2026-05-01 14:34 51.46515 -0.51190 878 ft 203 kts 269°
2026-05-01 14:34 51.46548 -0.53417 1759 ft 195 kts 265°
2026-05-01 14:35 51.46466 -0.55675 2305 ft 202 kts 263°
2026-05-01 14:35 51.46369 -0.58102 2651 ft 219 kts 264°
2026-05-01 14:35 51.46286 -0.60920 2963 ft 242 kts 265°
2026-05-01 14:35 51.46148 -0.63993 3541 ft 251 kts 257°
2026-05-01 14:36 51.45773 -0.66951 4303 ft 254 kts 257°
2026-05-01 14:36 51.45547 -0.70026 5088 ft 257 kts 263°
2026-05-01 14:36 51.45465 -0.73199 5689 ft 259 kts 264°
2026-05-01 14:36 51.45409 -0.76490 5968 ft 260 kts 265°
2026-05-01 14:37 51.45369 -0.79786 6295 ft 268 kts 265°
2026-05-01 14:37 51.45334 -0.83072 6932 ft 274 kts 265°
2026-05-01 14:37 51.45325 -0.86372 7657 ft 277 kts 268°
2026-05-01 14:37 51.45510 -0.89779 8378 ft 282 kts 275°
2026-05-01 14:38 51.45879 -0.93200 9076 ft 285 kts 277°
2026-05-01 14:38 51.46280 -0.96633 9765 ft 288 kts 277°
2026-05-01 14:38 51.46689 -1.00130 10403 ft 292 kts 277°
2026-05-01 14:38 51.47102 -1.03720 10773 ft 306 kts 277°
2026-05-01 14:39 51.47532 -1.07501 11080 ft 321 kts 277°
2026-05-01 14:39 51.47974 -1.11413 11373 ft 336 kts 277°
2026-05-01 14:39 51.48460 -1.15711 11689 ft 351 kts 277°
2026-05-01 14:39 51.49085 -1.19956 12102 ft 364 kts 288°
2026-05-01 14:40 51.50483 -1.23907 12713 ft 373 kts 306°
2026-05-01 14:40 51.52502 -1.27227 13352 ft 378 kts 315°
2026-05-01 14:40 51.54714 -1.30470 13928 ft 383 kts 315°
2026-05-01 14:40 51.56948 -1.33754 14375 ft 391 kts 315°
2026-05-01 14:41 51.59096 -1.37051 14610 ft 403 kts 311°
2026-05-01 14:41 51.61153 -1.41055 14861 ft 413 kts 303°
2026-05-01 14:41 51.62845 -1.45474 15091 ft 422 kts 296°
2026-05-01 14:41 51.64441 -1.50291 15408 ft 431 kts 295°
2026-05-01 14:42 51.65983 -1.55040 15891 ft 435 kts 295°
2026-05-01 14:42 51.67569 -1.59879 16411 ft 438 kts 295°
2026-05-01 14:42 51.69146 -1.64846 16898 ft 440 kts 291°
2026-05-01 14:42 51.70255 -1.69721 17336 ft 439 kts 283°
2026-05-01 14:43 51.70963 -1.75112 17804 ft 439 kts 275°
2026-05-01 14:43 51.71377 -1.80590 18262 ft 441 kts 273°
2026-05-01 14:43 51.71742 -1.86082 18712 ft 444 kts 273°
2026-05-01 14:43 51.72108 -1.91484 19143 ft 447 kts 273°
2026-05-01 14:44 51.72490 -1.96991 19548 ft 450 kts 273°
2026-05-01 14:44 51.73280 -2.08291 20378 ft 456 kts 273°
2026-05-01 14:44 51.73689 -2.14124 20795 ft 458 kts 273°
2026-05-01 14:45 51.74102 -2.20065 21224 ft 461 kts 273°
2026-05-01 14:45 51.74909 -2.31836 22000 ft 465 kts 273°
2026-05-01 14:45 51.75318 -2.37908 22370 ft 468 kts 273°
2026-05-01 14:46 51.75731 -2.44102 22767 ft 469 kts 273°
2026-05-01 14:46 51.76543 -2.56373 23765 ft 467 kts 273°
2026-05-01 14:46 51.76954 -2.62631 24272 ft 466 kts 273°
2026-05-01 14:47 51.77358 -2.68800 24753 ft 465 kts 272°
2026-05-01 14:47 51.77750 -2.74852 25223 ft 463 kts 272°
2026-05-01 14:47 51.78153 -2.81162 25693 ft 462 kts 272°
2026-05-01 14:48 51.78938 -2.93643 26604 ft 459 kts 272°
2026-05-01 14:48 51.79324 -2.99832 27008 ft 459 kts 272°
2026-05-01 14:48 51.80071 -3.12023 27780 ft 457 kts 272°
2026-05-01 14:49 51.80788 -3.23909 28543 ft 455 kts 271°
2026-05-01 14:49 51.81473 -3.35482 29298 ft 451 kts 271°
2026-05-01 14:50 51.81896 -3.42767 29718 ft 450 kts 271°
2026-05-01 14:50 51.82986 -3.57301 30447 ft 452 kts 277°
2026-05-01 14:51 51.83648 -3.62575 30669 ft 453 kts 278°
2026-05-01 14:51 51.85104 -3.73717 31103 ft 454 kts 277°
2026-05-01 14:52 51.86502 -3.84511 31504 ft 455 kts 277°
2026-05-01 14:52 51.87171 -3.89732 31689 ft 455 kts 277°
2026-05-01 14:52 51.88509 -4.00271 32018 ft 457 kts 277°
2026-05-01 14:53 51.89171 -4.05514 32123 ft 458 kts 277°
2026-05-01 14:53 51.90550 -4.16502 32125 ft 460 kts 277°
2026-05-01 14:54 51.91857 -4.26996 32127 ft 461 kts 277°
2026-05-01 14:54 51.93191 -4.37799 32126 ft 461 kts 277°
2026-05-01 14:55 51.94488 -4.48381 32125 ft 460 kts 276°
2026-05-01 14:55 51.95770 -4.58928 32123 ft 461 kts 276°
2026-05-01 14:56 51.97062 -4.69653 32125 ft 462 kts 275°
2026-05-01 14:56 51.98352 -4.80463 32122 ft 463 kts 275°
2026-05-01 14:57 51.99622 -4.91110 32122 ft 464 kts 276°
2026-05-01 14:57 52.02454 -5.06487 32124 ft 473 kts 287°
2026-05-01 14:58 52.05422 -5.16733 32122 ft 478 kts 294°
2026-05-01 14:58 52.09014 -5.26603 32124 ft 480 kts 296°
2026-05-01 14:59 52.12943 -5.37188 32120 ft 481 kts 296°
2026-05-01 14:59 52.16814 -5.47750 32121 ft 482 kts 296°
2026-05-01 15:00 52.22198 -5.63272 32117 ft 478 kts 290°
2026-05-01 15:01 52.24986 -5.74814 32121 ft 471 kts 281°
2026-05-01 15:01 52.26846 -5.86731 32120 ft 468 kts 276°
2026-05-01 15:02 52.28426 -5.98215 32122 ft 468 kts 276°
2026-05-01 15:02 52.29953 -6.09293 32125 ft 467 kts 276°
2026-05-01 15:03 52.31502 -6.20559 32127 ft 468 kts 276°
2026-05-01 15:03 52.33065 -6.31974 32124 ft 467 kts 276°
2026-05-01 15:04 52.34584 -6.43155 32120 ft 467 kts 276°
2026-05-01 15:04 52.36073 -6.54195 32118 ft 469 kts 276°
2026-05-01 15:05 52.37514 -6.64956 32116 ft 469 kts 276°
2026-05-01 15:05 52.39085 -6.76783 32113 ft 468 kts 275°
2026-05-01 15:06 52.40587 -6.88171 32114 ft 468 kts 275°
2026-05-01 15:06 52.42010 -6.99071 32105 ft 468 kts 275°
2026-05-01 15:07 52.43413 -7.09914 32096 ft 469 kts 275°
2026-05-01 15:07 52.44857 -7.21119 32085 ft 470 kts 275°
2026-05-01 15:08 52.46256 -7.32061 32083 ft 470 kts 275°
2026-05-01 15:08 52.47650 -7.43082 32081 ft 470 kts 275°
2026-05-01 15:09 52.49015 -7.53977 32076 ft 470 kts 275°
2026-05-01 15:09 52.50435 -7.64859 32076 ft 471 kts 278°
2026-05-01 15:10 52.52497 -7.76641 32075 ft 473 kts 279°
2026-05-01 15:10 52.55534 -7.93404 32070 ft 474 kts 279°
2026-05-01 15:11 52.58464 -8.09885 32059 ft 475 kts 279°
2026-05-01 15:12 52.60427 -8.20957 32055 ft 473 kts 279°
2026-05-01 15:12 52.63292 -8.37260 32046 ft 473 kts 280°
2026-05-01 15:14 52.68056 -8.64746 32040 ft 475 kts 280°
2026-05-01 15:14 52.71152 -8.82867 32041 ft 475 kts 279°
2026-05-01 15:15 52.73985 -9.06564 32038 ft 468 kts 273°
2026-05-01 15:16 52.76259 -9.29341 32032 ft 467 kts 273°
2026-05-01 15:18 52.79047 -9.57706 32028 ft 467 kts 274°
2026-05-01 15:19 52.82367 -9.80193 32031 ft 473 kts 285°
2026-05-01 15:19 52.86408 -9.96275 32038 ft 476 kts 288°
2026-05-01 15:20 52.90408 -10.12042 32027 ft 476 kts 288°
2026-05-01 15:21 52.93053 -10.22576 32010 ft 476 kts 288°
2026-05-01 15:21 52.95609 -10.32821 32012 ft 477 kts 288°
2026-05-01 15:22 52.99431 -10.48228 32022 ft 478 kts 288°
2026-05-01 15:22 53.01967 -10.58510 32033 ft 479 kts 288°
2026-05-01 15:23 53.04514 -10.68885 32006 ft 479 kts 288°
2026-05-01 15:23 53.07075 -10.79366 32001 ft 479 kts 288°
2026-05-01 15:24 53.09621 -10.89835 32010 ft 480 kts 288°
2026-05-01 15:24 53.12155 -11.00311 31999 ft 481 kts 288°
2026-05-01 15:25 53.14687 -11.10837 32007 ft 482 kts 288°
2026-05-01 15:25 53.17171 -11.21200 32007 ft 481 kts 288°
2026-05-01 15:26 53.19652 -11.31610 32007 ft 480 kts 289°
2026-05-01 15:26 53.22116 -11.41985 32008 ft 481 kts 289°
2026-05-01 15:27 53.24562 -11.52344 31999 ft 480 kts 289°
2026-05-01 15:28 53.28223 -11.67935 32003 ft 480 kts 289°
2026-05-01 15:28 53.30687 -11.78487 31997 ft 480 kts 289°
2026-05-01 15:29 53.34308 -11.94103 32002 ft 479 kts 289°
2026-05-01 15:30 53.38723 -12.13289 32022 ft 478 kts 289°
2026-05-01 15:31 53.43970 -12.36335 32497 ft 477 kts 290°
2026-05-01 15:31 53.46446 -12.47294 32882 ft 475 kts 290°
2026-05-01 15:32 53.48844 -12.57955 33218 ft 473 kts 290°
2026-05-01 15:32 53.51198 -12.68478 33530 ft 472 kts 289°
2026-05-01 15:33 53.54665 -12.84077 33964 ft 469 kts 290°
2026-05-01 15:34 53.58134 -12.99805 34009 ft 470 kts 290°